Time,TemperatureF,DewpointF,PressureIn,WindDirection,WindDirectionDegrees,WindSpeedMPH,WindSpeedGustMPH,Humidity,HourlyPrecipIn,Conditions,Clouds,dailyrainin,SoftwareType,DateUTC
2013-01-31 00:04:00,9.4,3.0,29.91,WNW,291,3.0,11.0,75,0.00,,,0.00,weatherlink.com 1.10,2013-01-31 06:04:00,
2013-01-31 00:19:00,9.1,3.0,29.92,WNW,283,4.0,10.0,75,0.00,,,0.00,weatherlink.com 1.10,2013-01-31 06:19:00,
2013-01-31 00:33:00,8.6,2.0,29.92,WNW,296,5.0,11.0,75,0.00,,,0.00,weatherlink.com 1.10,2013-01-31 06:33:00,
2013-01-31 00:49:00,8.3,2.0,29.93,WNW,290,3.0,14.0,75,0.00,,,0.00,weatherlink.com 1.10,2013-01-31 06:49:00,
2013-01-31 01:03:00,8.0,2.0,29.93,NW,313,9.0,12.0,76,0.00,,,0.00,weatherlink.com 1.10,2013-01-31 07:03:00,
2013-01-31 01:19:00,7.9,2.0,29.93,WNW,302,7.0,11.0,77,0.00,,,0.00,weatherlink.com 1.10,2013-01-31 07:19:00,
2013-01-31 01:34:00,7.9,2.0,29.94,WNW,287,3.0,8.0,78,0.00,,,0.00,weatherlink.com 1.10,2013-01-31 07:34:00,
2013-01-31 01:49:00,7.9,2.0,29.95,WNW,293,6.0,10.0,78,0.00,,,0.00,weatherlink.com 1.10,2013-01-31 07:49:00,
2013-01-31 02:19:00,7.7,3.0,29.96,WNW,289,3.0,11.0,79,0.00,,,0.00,weatherlink.com 1.10,2013-01-31 08:19:00,
2013-01-31 02:34:00,7.4,3.0,29.96,WNW,294,4.0,8.0,80,0.00,,,0.00,weatherlink.com 1.10,2013-01-31 08:34:00,
2013-01-31 02:49:00,6.9,2.0,29.96,West,262,4.0,9.0,80,0.00,,,0.00,weatherlink.com 1.10,2013-01-31 08:49:00,
2013-01-31 03:04:00,6.7,2.0,29.96,WNW,288,0.0,8.0,81,0.00,,,0.00,weatherlink.com 1.10,2013-01-31 09:04:00,
2013-01-31 03:19:00,6.7,2.0,29.96,NNW,337,7.0,12.0,80,0.00,,,0.00,weatherlink.com 1.10,2013-01-31 09:19:00,
2013-01-31 03:34:00,6.6,1.0,29.96,NW,304,4.0,9.0,77,0.00,,,0.00,weatherlink.com 1.10,2013-01-31 09:34:00,
2013-01-31 03:50:00,6.3,0.0,29.97,WNW,286,6.0,13.0,75,0.00,,,0.00,weatherlink.com 1.10,2013-01-31 09:50:00,
2013-01-31 04:04:00,6.0,0.0,29.97,WNW,297,3.0,11.0,75,0.00,,,0.00,weatherlink.com 1.10,2013-01-31 10:04:00,
2013-01-31 04:19:00,6.0,0.0,29.98,West,279,6.0,10.0,76,0.00,,,0.00,weatherlink.com 1.10,2013-01-31 10:19:00,
2013-01-31 04:35:00,6.0,0.0,29.98,NW,313,3.0,11.0,75,0.00,,,0.00,weatherlink.com 1.10,2013-01-31 10:35:00,
2013-01-31 04:50:00,5.6,-1.0,29.99,NNW,336,4.0,12.0,74,0.00,,,0.00,weatherlink.com 1.10,2013-01-31 10:50:00,
2013-01-31 05:05:00,5.6,-1.0,30.00,NW,311,11.0,11.0,75,0.00,,,0.00,weatherlink.com 1.10,2013-01-31 11:05:00,
2013-01-31 05:20:00,5.5,-1.0,30.00,WNW,288,7.0,9.0,75,0.00,,,0.00,weatherlink.com 1.10,2013-01-31 11:20:00,
2013-01-31 05:35:00,5.5,-1.0,30.00,NW,309,1.0,9.0,76,0.00,,,0.00,weatherlink.com 1.10,2013-01-31 11:35:00,
2013-01-31 05:50:00,5.4,-1.0,30.01,NW,309,8.0,10.0,76,0.00,,,0.00,weatherlink.com 1.10,2013-01-31 11:50:00,
2013-01-31 06:05:00,5.1,-1.0,30.02,WNW,291,8.0,10.0,75,0.00,,,0.00,weatherlink.com 1.10,2013-01-31 12:05:00,
2013-01-31 06:20:00,4.8,-2.0,30.02,West,265,5.0,12.0,75,0.00,,,0.00,weatherlink.com 1.10,2013-01-31 12:20:00,
2013-01-31 06:35:00,4.7,-1.0,30.04,WSW,254,4.0,10.0,77,0.00,,,0.00,weatherlink.com 1.10,2013-01-31 12:35:00,
2013-01-31 06:50:00,4.7,-1.0,30.04,West,267,2.0,9.0,77,0.00,,,0.00,weatherlink.com 1.10,2013-01-31 12:50:00,
2013-01-31 07:05:00,4.3,-2.0,30.05,NW,315,2.0,14.0,75,0.00,,,0.00,weatherlink.com 1.10,2013-01-31 13:05:00,
2013-01-31 07:20:00,4.0,-2.0,30.06,West,280,4.0,8.0,77,0.00,,,0.00,weatherlink.com 1.10,2013-01-31 13:20:00,
2013-01-31 07:35:00,3.5,-3.0,30.06,SW,227,4.0,12.0,75,0.00,,,0.00,weatherlink.com 1.10,2013-01-31 13:35:00,
2013-01-31 07:51:00,3.2,-3.0,30.07,WNW,298,1.0,9.0,76,0.00,,,0.00,weatherlink.com 1.10,2013-01-31 13:51:00,
2013-01-31 08:06:00,2.8,-3.0,30.08,North,355,4.0,11.0,75,0.00,,,0.00,weatherlink.com 1.10,2013-01-31 14:06:00,
2013-01-31 08:21:00,2.8,-3.0,30.09,West,269,6.0,11.0,76,0.00,,,0.00,weatherlink.com 1.10,2013-01-31 14:21:00,
2013-01-31 08:36:00,2.2,-4.0,30.09,NW,308,7.0,11.0,75,0.00,,,0.00,weatherlink.com 1.10,2013-01-31 14:36:00,
2013-01-31 08:51:00,2.2,-4.0,30.10,WNW,294,5.0,12.0,74,0.00,,,0.00,weatherlink.com 1.10,2013-01-31 14:51:00,
2013-01-31 09:06:00,2.1,-5.0,30.11,NW,306,9.0,13.0,73,0.00,,,0.00,weatherlink.com 1.10,2013-01-31 15:06:00,
2013-01-31 09:21:00,2.1,-5.0,30.12,NW,325,2.0,15.0,72,0.00,,,0.00,weatherlink.com 1.10,2013-01-31 15:21:00,
2013-01-31 09:36:00,2.4,-4.0,30.13,NW,312,4.0,12.0,73,0.00,,,0.00,weatherlink.com 1.10,2013-01-31 15:36:00,
2013-01-31 09:51:00,2.2,-5.0,30.14,West,277,2.0,12.0,72,0.00,,,0.00,weatherlink.com 1.10,2013-01-31 15:51:00,
2013-01-31 10:06:00,2.5,-5.0,30.16,NW,308,7.0,13.0,71,0.00,,,0.00,weatherlink.com 1.10,2013-01-31 16:06:00,
2013-01-31 10:21:00,2.6,-5.0,30.16,WSW,251,6.0,13.0,71,0.00,,,0.00,weatherlink.com 1.10,2013-01-31 16:21:00,
2013-01-31 10:36:00,2.4,-5.0,30.17,WNW,290,2.0,13.0,71,0.00,,,0.00,weatherlink.com 1.10,2013-01-31 16:36:00,
2013-01-31 10:52:00,3.0,-4.0,30.18,WNW,295,7.0,13.0,73,0.00,,,0.00,weatherlink.com 1.10,2013-01-31 16:52:00,
2013-01-31 11:07:00,2.9,-5.0,30.19,WSW,258,5.0,14.0,71,0.00,,,0.00,weatherlink.com 1.10,2013-01-31 17:07:00,
2013-01-31 11:21:00,3.1,-4.0,30.19,WNW,302,3.0,11.0,71,0.00,,,0.00,weatherlink.com 1.10,2013-01-31 17:21:00,
2013-01-31 11:37:00,3.4,-3.0,30.19,WNW,287,2.0,12.0,73,0.00,,,0.00,weatherlink.com 1.10,2013-01-31 17:37:00,
2013-01-31 11:52:00,3.7,-4.0,30.19,North,5,6.0,15.0,70,0.00,,,0.00,weatherlink.com 1.10,2013-01-31 17:52:00,
2013-01-31 12:07:00,3.3,-4.0,30.20,West,277,8.0,10.0,72,0.00,,,0.00,weatherlink.com 1.10,2013-01-31 18:07:00,
2013-01-31 12:22:00,3.5,-4.0,30.20,North,350,12.0,14.0,71,0.00,,,0.00,weatherlink.com 1.10,2013-01-31 18:22:00,
2013-01-31 12:37:00,3.7,-3.0,30.21,NW,308,3.0,13.0,72,0.00,,,0.00,weatherlink.com 1.10,2013-01-31 18:37:00,
2013-01-31 12:52:00,3.3,-4.0,30.22,WNW,296,7.0,12.0,73,0.00,,,0.00,weatherlink.com 1.10,2013-01-31 18:52:00,
2013-01-31 13:07:00,3.1,-4.0,30.22,NW,320,5.0,14.0,71,0.00,,,0.00,weatherlink.com 1.10,2013-01-31 19:07:00,
2013-01-31 13:22:00,3.2,-5.0,30.23,North,355,6.0,13.0,70,0.00,,,0.00,weatherlink.com 1.10,2013-01-31 19:22:00,
2013-01-31 13:37:00,3.2,-5.0,30.23,North,355,6.0,15.0,69,0.00,,,0.00,weatherlink.com 1.10,2013-01-31 19:37:00,
2013-01-31 13:53:00,3.5,-5.0,30.24,WSW,243,4.0,12.0,67,0.00,,,0.00,weatherlink.com 1.10,2013-01-31 19:53:00,
2013-01-31 14:07:00,3.5,-5.0,30.24,West,271,5.0,13.0,69,0.00,,,0.00,weatherlink.com 1.10,2013-01-31 20:07:00,
2013-01-31 14:22:00,3.6,-5.0,30.24,West,281,6.0,14.0,68,0.00,,,0.00,weatherlink.com 1.10,2013-01-31 20:22:00,
2013-01-31 14:37:00,3.8,-5.0,30.25,WNW,284,10.0,14.0,68,0.00,,,0.00,weatherlink.com 1.10,2013-01-31 20:37:00,
2013-01-31 14:53:00,3.6,-5.0,30.26,WNW,292,7.0,15.0,67,0.00,,,0.00,weatherlink.com 1.10,2013-01-31 20:53:00,
2013-01-31 15:08:00,3.7,-5.0,30.27,NW,321,12.0,17.0,67,0.00,,,0.00,weatherlink.com 1.10,2013-01-31 21:08:00,
2013-01-31 15:38:00,3.6,-4.0,30.28,North,355,5.0,15.0,71,0.00,,,0.00,weatherlink.com 1.10,2013-01-31 21:38:00,
2013-01-31 15:53:00,3.8,-4.0,30.28,WNW,286,1.0,11.0,70,0.00,,,0.00,weatherlink.com 1.10,2013-01-31 21:53:00,
2013-01-31 16:08:00,3.4,-5.0,30.29,West,267,6.0,11.0,67,0.00,,,0.00,weatherlink.com 1.10,2013-01-31 22:08:00,
2013-01-31 16:23:00,3.2,-6.0,30.30,West,274,6.0,14.0,67,0.00,,,0.00,weatherlink.com 1.10,2013-01-31 22:23:00,
2013-01-31 16:38:00,2.9,-6.0,30.31,NNW,331,4.0,13.0,67,0.00,,,0.00,weatherlink.com 1.10,2013-01-31 22:38:00,
2013-01-31 16:53:00,2.4,-6.0,30.32,NNW,335,9.0,14.0,69,0.00,,,0.00,weatherlink.com 1.10,2013-01-31 22:53:00,
2013-01-31 17:08:00,2.2,-5.0,30.32,West,281,7.0,14.0,71,0.00,,,0.00,weatherlink.com 1.10,2013-01-31 23:08:00,
2013-01-31 17:23:00,2.1,-6.0,30.33,WNW,302,4.0,11.0,70,0.00,,,0.00,weatherlink.com 1.10,2013-01-31 23:23:00,
2013-01-31 17:39:00,1.9,-6.0,30.34,West,261,6.0,10.0,69,0.00,,,0.00,weatherlink.com 1.10,2013-01-31 23:39:00,
2013-01-31 17:53:00,1.4,-7.0,30.34,West,268,7.0,11.0,68,0.00,,,0.00,weatherlink.com 1.10,2013-01-31 23:53:00,
2013-01-31 18:08:00,1.1,-7.0,30.35,WNW,294,5.0,11.0,68,0.00,,,0.00,weatherlink.com 1.10,2013-02-01 00:08:00,
2013-01-31 18:24:00,0.9,-7.0,30.36,WNW,290,1.0,14.0,69,0.00,,,0.00,weatherlink.com 1.10,2013-02-01 00:24:00,
2013-01-31 18:39:00,0.4,-8.0,30.36,NW,317,7.0,14.0,69,0.00,,,0.00,weatherlink.com 1.10,2013-02-01 00:39:00,
2013-01-31 18:54:00,-0.4,-8.0,30.37,West,264,9.0,13.0,70,0.00,,,0.00,weatherlink.com 1.10,2013-02-01 00:54:00,
2013-01-31 19:09:00,-1.0,-9.0,30.37,NNW,331,5.0,11.0,70,0.00,,,0.00,weatherlink.com 1.10,2013-02-01 01:09:00,
2013-01-31 19:24:00,-1.3,-9.0,30.38,WNW,296,6.0,8.0,71,0.00,,,0.00,weatherlink.com 1.10,2013-02-01 01:24:00,
2013-01-31 19:39:00,-1.7,-9.0,30.39,NW,321,2.0,17.0,71,0.00,,,0.00,weatherlink.com 1.10,2013-02-01 01:39:00,
2013-01-31 19:54:00,-2.1,-9.0,30.39,West,275,6.0,13.0,71,0.00,,,0.00,weatherlink.com 1.10,2013-02-01 01:54:00,
2013-01-31 20:14:00,-2.5,-10.0,30.40,WNW,291,4.0,8.0,71,0.00,,,0.00,weatherlink.com 1.10,2013-02-01 02:14:00,
2013-01-31 20:24:00,-2.9,-10.0,30.40,WNW,284,2.0,13.0,71,0.00,,,0.00,weatherlink.com 1.10,2013-02-01 02:24:00,
2013-01-31 20:39:00,-3.0,-11.0,30.41,NW,312,3.0,9.0,70,0.00,,,0.00,weatherlink.com 1.10,2013-02-01 02:39:00,
2013-01-31 20:54:00,-3.6,-11.0,30.41,West,267,7.0,10.0,72,0.00,,,0.00,weatherlink.com 1.10,2013-02-01 02:54:00,
2013-01-31 21:09:00,-4.0,-11.0,30.42,West,271,5.0,9.0,72,0.00,,,0.00,weatherlink.com 1.10,2013-02-01 03:09:00,
2013-01-31 21:24:00,-4.2,-11.0,30.42,WNW,285,6.0,10.0,72,0.00,,,0.00,weatherlink.com 1.10,2013-02-01 03:24:00,
2013-01-31 21:39:00,-4.3,-11.0,30.43,West,275,2.0,9.0,72,0.00,,,0.00,weatherlink.com 1.10,2013-02-01 03:39:00,
2013-01-31 21:55:00,-4.8,-12.0,30.43,WNW,298,3.0,10.0,72,0.00,,,0.00,weatherlink.com 1.10,2013-02-01 03:55:00,
2013-01-31 22:10:00,-5.1,-12.0,30.43,WNW,293,2.0,10.0,72,0.00,,,0.00,weatherlink.com 1.10,2013-02-01 04:10:00,
2013-01-31 22:25:00,-5.4,-13.0,30.44,WNW,300,2.0,14.0,71,0.00,,,0.00,weatherlink.com 1.10,2013-02-01 04:25:00,
2013-01-31 22:40:00,-5.6,-13.0,30.44,WNW,296,0.0,8.0,71,0.00,,,0.00,weatherlink.com 1.10,2013-02-01 04:40:00,
2013-01-31 22:55:00,-5.7,-13.0,30.45,WNW,302,6.0,9.0,71,0.00,,,0.00,weatherlink.com 1.10,2013-02-01 04:55:00,
2013-01-31 23:10:00,-6.0,-13.0,30.45,WNW,290,2.0,7.0,71,0.00,,,0.00,weatherlink.com 1.10,2013-02-01 05:10:00,
2013-01-31 23:25:00,-6.2,-14.0,30.46,WNW,283,3.0,11.0,70,0.00,,,0.00,weatherlink.com 1.10,2013-02-01 05:25:00,
2013-01-31 23:40:00,-6.4,-14.0,30.46,West,270,4.0,10.0,70,0.00,,,0.00,weatherlink.com 1.10,2013-02-01 05:40:00,
2013-01-31 23:55:00,-6.5,-14.0,30.46,WNW,296,3.0,9.0,70,0.00,,,0.00,weatherlink.com 1.10,2013-02-01 05:55:00,